Time,TemperatureF,DewpointF,PressureIn,WindDirection,WindDirectionDegrees,WindSpeedMPH,WindSpeedGustMPH,Humidity,HourlyPrecipIn,Conditions,Clouds,dailyrainin,SolarRadiationWatts/m^2,SoftwareType,DateUTC
2013-02-26 02:16:00,59.8,54.6,29.96,SSE,165,10.0,10.0,83,0.00,,,0.00,0,Wunderground v.1.15,2013-02-26 00:16:00,
2013-02-26 03:41:00,59.2,55.3,29.96,South,186,7.0,7.0,87,0.00,,,0.00,0,Wunderground v.1.15,2013-02-26 01:41:00,
2013-02-26 03:56:00,59.1,55.5,29.96,South,183,8.0,8.0,88,0.00,,,0.00,0,Wunderground v.1.15,2013-02-26 01:56:00,
2013-02-26 04:06:00,58.8,55.3,29.96,SSW,197,8.0,10.0,88,0.00,,,0.00,0,Wunderground v.1.15,2013-02-26 02:06:00,
2013-02-26 04:31:00,58.5,55.0,29.97,South,178,4.0,6.0,88,0.00,,,0.00,0,Wunderground v.1.15,2013-02-26 02:31:00,
2013-02-26 05:11:00,58.6,53.5,29.96,South,172,7.0,9.0,83,0.00,,,0.00,0,Wunderground v.1.15,2013-02-26 03:11:00,
2013-02-26 06:06:00,58.1,52.3,29.96,SSW,193,5.0,9.0,81,0.00,,,0.00,0,Wunderground v.1.15,2013-02-26 04:06:00,
2013-02-26 06:56:00,57.7,51.9,29.97,South,179,6.0,6.0,81,0.00,,,0.00,0,Wunderground v.1.15,2013-02-26 04:56:00,
2013-02-26 07:36:00,57.5,52.0,29.98,South,182,4.0,5.0,82,0.00,,,0.00,21,Wunderground v.1.15,2013-02-26 05:36:00,
2013-02-26 08:11:00,58.1,53.3,29.99,South,178,4.0,4.0,84,0.00,,,0.00,132,Wunderground v.1.15,2013-02-26 06:11:00,
2013-02-26 08:46:00,59.0,54.2,30.00,South,178,4.0,4.0,84,0.00,,,0.00,188,Wunderground v.1.15,2013-02-26 06:46:00,
2013-02-26 11:21:00,62.5,48.4,30.01,NW,307,4.0,4.0,60,0.00,,,0.00,610,Wunderground v.1.15,2013-02-26 09:21:00,
2013-02-26 11:51:00,62.0,48.8,30.00,WNW,302,5.0,5.0,62,0.00,,,0.00,652,Wunderground v.1.15,2013-02-26 09:51:00,
2013-02-26 12:16:00,62.9,48.8,30.01,WNW,302,3.0,3.0,60,0.00,,,0.00,675,Wunderground v.1.15,2013-02-26 10:16:00,
2013-02-26 12:26:00,63.9,49.3,30.01,WNW,302,1.0,1.0,59,0.00,,,0.00,673,Wunderground v.1.15,2013-02-26 10:26:00,
2013-02-26 12:36:00,64.0,50.7,30.00,WNW,302,2.0,3.0,62,0.00,,,0.00,682,Wunderground v.1.15,2013-02-26 10:36:00,
2013-02-26 12:46:00,63.1,52.0,30.00,WNW,302,3.0,3.0,67,0.00,,,0.00,680,Wunderground v.1.15,2013-02-26 10:46:00,
2013-02-26 13:26:00,64.1,49.9,30.00,WNW,302,2.0,3.0,60,0.00,,,0.00,677,Wunderground v.1.15,2013-02-26 11:26:00,
2013-02-26 13:46:00,63.7,49.1,30.00,WNW,302,2.0,2.0,59,0.00,,,0.00,656,Wunderground v.1.15,2013-02-26 11:46:00,
2013-02-26 14:06:00,64.8,48.2,29.99,WNW,302,1.0,3.0,55,0.00,,,0.00,635,Wunderground v.1.15,2013-02-26 12:06:00,
2013-02-26 14:16:00,64.3,47.3,29.99,WNW,302,2.0,2.0,54,0.00,,,0.00,613,Wunderground v.1.15,2013-02-26 12:16:00,
2013-02-26 15:26:00,65.7,48.1,29.99,WNW,302,1.0,2.0,53,0.00,,,0.00,478,Wunderground v.1.15,2013-02-26 13:26:00,
2013-02-26 15:51:00,65.3,47.2,29.99,WNW,302,1.0,1.0,52,0.00,,,0.00,418,Wunderground v.1.15,2013-02-26 13:51:00,
2013-02-26 16:01:00,65.0,47.4,29.98,WNW,302,1.0,1.0,53,0.00,,,0.00,385,Wunderground v.1.15,2013-02-26 14:01:00,
2013-02-26 16:51:00,62.7,50.3,29.98,WNW,296,3.0,3.0,64,0.00,,,0.00,60,Wunderground v.1.15,2013-02-26 14:51:00,
2013-02-26 17:56:00,60.4,51.3,29.99,WNW,295,1.0,3.0,72,0.00,,,0.00,14,Wunderground v.1.15,2013-02-26 15:56:00,
2013-02-26 18:06:00,60.1,51.8,29.99,WNW,295,1.0,1.0,74,0.00,,,0.00,7,Wunderground v.1.15,2013-02-26 16:06:00,
2013-02-26 18:16:00,59.9,51.2,29.99,WNW,295,1.0,1.0,73,0.00,,,0.00,0,Wunderground v.1.15,2013-02-26 16:16:00,
2013-02-26 18:26:00,59.7,51.4,30.00,WNW,295,1.0,5.0,74,0.00,,,0.00,0,Wunderground v.1.15,2013-02-26 16:26:00,
2013-02-26 18:41:00,59.4,46.4,30.00,WNW,296,3.0,4.0,62,0.00,,,0.00,0,Wunderground v.1.15,2013-02-26 16:41:00,
2013-02-26 19:16:00,58.3,45.3,30.01,NW,319,2.0,2.0,62,0.00,,,0.00,0,Wunderground v.1.15,2013-02-26 17:16:00,